This is the latest recevied weather packets stored in our database for station/object KX4O-13. If no packets are shown the sender has not sent any weather packets the latest 10 day(s).
| Time | Temp. | Humidity | Pressure | Rain* | Wind** | Luminosity | Snow |
|---|---|---|---|---|---|---|---|
| 1777673459 | 17.22° C | 39% | 1009.9 hPa | 0 mm | - | 54 W/m² | - |
| 1777673159 | 17.78° C | 38% | 1009.9 hPa | 0 mm | - | 47 W/m² | - |
| 1777672859 | 17.78° C | 37% | 1009.9 hPa | 0 mm | - | 74 W/m² | - |
| 1777672559 | 18.33° C | 36% | 1009.9 hPa | 0 mm | - | 67 W/m² | - |
| 1777672259 | 18.89° C | 36% | 1009.9 hPa | 0 mm | - | 195 W/m² | - |
| 1777671959 | 18.89° C | 36% | 1009.8 hPa | 0 mm | - | 418 W/m² | - |
| 1777671659 | 18.89° C | 35% | 1009.9 hPa | 0 mm | - | 425 W/m² | - |
| 1777671359 | 18.89° C | 34% | 1009.9 hPa | 0 mm | - | 439 W/m² | - |
| 1777671059 | 19.44° C | 35% | 1009.9 hPa | 0 mm | - | 454 W/m² | - |
| 1777670759 | 19.44° C | 36% | 1009.8 hPa | 0 mm | - | 471 W/m² | - |
| 1777670459 | 19.44° C | 35% | 1009.9 hPa | 0 mm | - | 487 W/m² | - |
| 1777670159 | 19.44° C | 34% | 1010 hPa | 0 mm | - | 501 W/m² | - |
| 1777669859 | 19.44° C | 34% | 1010.1 hPa | 0 mm | - | 515 W/m² | - |
| 1777669559 | 19.44° C | 35% | 1010.1 hPa | 0 mm | - | 529 W/m² | - |
| 1777669259 | 19.44° C | 36% | 1010.1 hPa | 0 mm | - | 547 W/m² | - |
| 1777668959 | 19.44° C | 35% | 1010.3 hPa | 0 mm | - | 559 W/m² | - |
| 1777668659 | 19.44° C | 35% | 1010.2 hPa | 0 mm | - | 573 W/m² | - |
| 1777668359 | 19.44° C | 35% | 1010.1 hPa | 0 mm | - | 585 W/m² | - |
| 1777668059 | 19.44° C | 35% | 1010.2 hPa | 0 mm | - | 599 W/m² | - |
| 1777667759 | 19.44° C | 40% | 1010.1 hPa | 0 mm | - | 617 W/m² | - |
| 1777667459 | 18.89° C | 34% | 1010.2 hPa | 0 mm | - | 628 W/m² | - |
| 1777667159 | 19.44° C | 35% | 1010.3 hPa | 0 mm | - | 640 W/m² | - |
| 1777666859 | 19.44° C | 37% | 1010.6 hPa | 0 mm | - | 652 W/m² | - |
| 1777666559 | 19.44° C | 35% | 1010.7 hPa | 0 mm | - | 663 W/m² | - |
| 1777666259 | 19.44° C | 37% | 1010.6 hPa | 0 mm | - | 671 W/m² | - |
* Rain latest hour (hover to see other rain measurements)
** Current wind speed in m/s (hover to see current wind gust speed)